Weather History for PHJR - January, 2013

Change the Weather History Date:

Sunday, January 6, 2013

  Actual Average (PHNL) Record (PHNL)
Temperature  
Mean Temperature 78 °F 73 °F  
Max Temperature 82 °F 80 °F 87 °F (1996)
Min Temperature 73 °F 67 °F 56 °F (1903)
Degree Days  
Heating Degree Days 0 0  
Month to date heating degree days 0  
Since 1 July heating degree days 0  
Cooling Degree Days 12 8  
Month to date cooling degree days 50  
Year to date cooling degree days 50  
Growing Degree Days 28 (Base 50)    
Moisture  
Dew Point 63 °F    
Average Humidity 64    
Maximum Humidity 73    
Minimum Humidity 51    
Precipitation  
Precipitation 0.00 in 0.09 in 1.75 in (1887)
Month to date precipitation 0.56  
Year to date precipitation 0.56  
Snow  
Snow 0.00 in - - ()
Month to date snowfall  
Since 1 July snowfall  
Snow Depth -    
Sea Level Pressure  
Sea Level Pressure 30.11 in    
Wind  
Wind Speed 10 mph (ENE)    
Max Wind Speed 16 mph    
Max Gust Speed 29 mph    
Visibility 10 miles    
Events      
T = Trace of Precipitation, MM = Missing Value Source: NWS Daily Summary

Daily Weather History Graph

Daily Weather History Graph

Search for Another Location

Airport or City:

Trip Planner

Search our weather history database for the weather conditions in past years. The results will help you decide how hot, cold, wet, or windy it might be!

Date:

Astronomy

Jan. 06, 2013 Rise Set
Actual Time 7:11 AM HST 6:05 PM HST
Civil Twilight 6:47 AM HST 6:29 PM HST
Nautical Twilight 6:19 AM HST 6:57 PM HST
Astronomical Twilight 5:52 AM HST 7:24 PM HST
Moon 1:53 AM HST (1/6) 1:29 PM HST (1/6)
Length of Visible Light 11h 42m
Length of Day
10h 54m
Waning Crescent, 31% of the Moon is Illuminated
Jan 6
Waning Crescent
Jan 11
New
Jan 18
First Quarter
Jan 26
Full
Feb 3
Last Quarter

Hourly Weather History & Observations

Time (HST) Temp. Heat Index Dew Point Humidity Pressure Visibility Wind Dir Wind Speed Gust Speed Precip Events Conditions
12:53 AM 73.0 °F - 63.0 °F 71% 30.13 in 10.0 mi ENE 10.4 mph 17.3 mph N/A   Clear
1:53 AM 73.0 °F - 61.0 °F 66% 30.13 in 10.0 mi ENE 10.4 mph 25.3 mph N/A   Clear
2:53 AM 73.0 °F - 61.0 °F 66% 30.13 in 10.0 mi East 8.1 mph - N/A   Clear
3:53 AM 73.0 °F - 60.1 °F 64% 30.12 in 10.0 mi ENE 9.2 mph 17.3 mph N/A   Clear
4:53 AM 73.0 °F - 61.0 °F 66% 30.13 in 10.0 mi East 6.9 mph - N/A   Clear
5:53 AM 73.0 °F - 61.0 °F 66% 30.14 in 10.0 mi ENE 8.1 mph 18.4 mph N/A   Clear
6:53 AM 73.0 °F - 62.1 °F 68% 30.14 in 10.0 mi East 9.2 mph 19.6 mph N/A   Scattered Clouds
7:53 AM 73.0 °F - 63.0 °F 71% 30.15 in 10.0 mi Variable 6.9 mph - N/A   Clear
8:53 AM 75.9 °F - 63.0 °F 64% 30.15 in 10.0 mi East 15.0 mph 28.8 mph N/A   Clear
9:53 AM 79.0 °F - 63.0 °F 58% 30.15 in 10.0 mi East 16.1 mph 25.3 mph N/A   Clear
10:53 AM 80.1 °F 81.5 °F 63.0 °F 56% 30.14 in 10.0 mi East 15.0 mph 27.6 mph N/A   Clear
11:53 AM 82.0 °F 83.0 °F 62.1 °F 51% 30.11 in 10.0 mi ENE 11.5 mph 25.3 mph N/A   Clear
12:53 PM 82.0 °F 83.0 °F 62.1 °F 51% 30.07 in 10.0 mi East 10.4 mph 24.2 mph N/A   Clear
1:53 PM 81.0 °F 81.9 °F 62.1 °F 52% 30.04 in 10.0 mi East 11.5 mph 26.5 mph N/A   Partly Cloudy
2:53 PM 82.0 °F 83.1 °F 63.0 °F 52% 30.04 in 10.0 mi East 10.4 mph 24.2 mph N/A   Partly Cloudy
3:53 PM 80.1 °F 81.5 °F 63.0 °F 56% 30.04 in 10.0 mi East 11.5 mph 23.0 mph N/A   Partly Cloudy
4:53 PM 78.1 °F - 64.0 °F 62% 30.06 in 10.0 mi East 6.9 mph - N/A   Overcast
5:53 PM 75.9 °F - 64.0 °F 67% 30.09 in 10.0 mi ENE 6.9 mph - N/A   Overcast
6:53 PM 75.0 °F - 63.0 °F 66% 30.09 in 10.0 mi ENE 5.8 mph - N/A   Mostly Cloudy
7:53 PM 73.9 °F - 64.0 °F 71% 30.10 in 10.0 mi ENE 8.1 mph - N/A   Partly Cloudy
8:53 PM 73.0 °F - 64.0 °F 73% 30.11 in 10.0 mi Variable 6.9 mph - N/A   Clear
9:53 PM 73.9 °F - 63.0 °F 68% 30.11 in 10.0 mi ENE 5.8 mph - N/A   Mostly Cloudy
10:53 PM 73.0 °F - 63.0 °F 71% 30.09 in 10.0 mi Variable 6.9 mph - N/A   Scattered Clouds
11:53 PM 73.9 °F - 64.0 °F 71% 30.08 in 10.0 mi ENE 9.2 mph - N/A   Mostly Cloudy